Weather History for Limon, CO

Change the Weather History Date:

Tuesday, January 29, 2013

  Actual Average Record
Temperature  
Mean Temperature 19 °F -  
Max Temperature 27 °F - 57 °F (2011)
Min Temperature 11 °F - 1 °F (2014)
Degree Days  
Heating Degree Days 46    
Month to date heating degree days 1177  
Cooling Degree Days 0    
Month to date cooling degree days 0  
Moisture  
Dew Point 17 °F    
Average Humidity 86    
Maximum Humidity 100    
Minimum Humidity 65    
Precipitation  
Precipitation 0.13 in - 0.13 in (2013)
Month to date precipitation 0.29  
Year to date precipitation 0.29  
Sea Level Pressure  
Sea Level Pressure 29.74 in    
Wind  
Wind Speed 14 mph (North)    
Max Wind Speed 25 mph    
Max Gust Speed 30 mph    
Visibility 10 miles    
Events Snow    
T = Trace of Precipitation, MM = Missing Value Source: NWS Daily Summary

Daily Weather History Graph

Daily Weather History Graph

Search for Another Location

Airport:

Trip Planner

Search our weather history database for the weather conditions in past years. The results will help you decide how hot, cold, wet, or windy it might be!

Date:

Astronomy

Jan. 29, 2013 Rise Set
Actual Time 7:04 AM MST 5:12 PM MST
Civil Twilight 6:35 AM MST 5:40 PM MST
Nautical Twilight 6:03 AM MST 6:12 PM MST
Astronomical Twilight 5:31 AM MST 6:44 PM MST
Moon 8:09 PM MST (1/29) 8:03 AM MST (1/29)
Length of Visible Light 11h 05m
Length of Day
10h 08m
Waning Gibbous, 93% of the Moon is Illuminated
Jan 29
Waning Gibbous
Feb 3
Last Quarter
Feb 10
New
Feb 17
First Quarter
Feb 25
Full

Hourly Weather History & Observations

Time (MST) Temp. Windchill Dew Point Humidity Pressure Visibility Wind Dir Wind Speed Gust Speed Precip Events Conditions
12:55 AM 27.0 °F 17.3 °F 25.0 °F 92% 29.63 in 10.0 mi North 10.4 mph - N/A   Overcast
1:28 AM 26.6 °F 15.2 °F 24.8 °F 93% 29.68 in 10.0 mi North 13.8 mph - N/A   Overcast
1:55 AM 26.1 °F 15.0 °F 25.0 °F 96% 29.61 in 10.0 mi North 12.7 mph - N/A   Overcast
2:08 AM 26.6 °F 15.7 °F 24.8 °F 93% 29.67 in 10.0 mi North 12.7 mph 18.4 mph N/A   Overcast
2:28 AM 26.6 °F 16.8 °F 24.8 °F 93% 29.68 in 10.0 mi North 10.4 mph - N/A   Overcast
2:50 AM 24.8 °F 11.9 °F 24.8 °F 100% 29.67 in 10.0 mi North 16.1 mph - 0.00 in Snow Light Snow
2:55 AM 25.0 °F 12.6 °F 24.1 °F 96% 29.61 in 9.0 mi North 15.0 mph - 0.00 in Snow Light Snow
3:06 AM 24.8 °F 13.4 °F 24.8 °F 100% 29.67 in 9.0 mi North 12.7 mph - 0.00 in Snow Light Snow
3:22 AM 24.8 °F 14.0 °F 21.2 °F 86% 29.66 in 9.0 mi North 11.5 mph - 0.01 in Snow Light Snow
3:32 AM 24.8 °F 12.4 °F 21.2 °F 86% 29.66 in 9.0 mi North 15.0 mph - 0.01 in Snow Light Snow
3:52 AM 24.8 °F 11.9 °F 21.2 °F 86% 29.66 in 9.0 mi North 16.1 mph - 0.01 in Snow Light Snow
3:55 AM 24.1 °F 10.6 °F 21.0 °F 88% 29.68 in 9.0 mi North 17.3 mph - 0.01 in Snow Light Snow
4:20 AM 23.0 °F 8.0 °F 19.4 °F 86% 29.66 in 9.0 mi North 20.7 mph 26.5 mph 0.00 in Snow Light Snow
4:51 AM 21.2 °F 6.4 °F 19.4 °F 93% 29.66 in 9.0 mi North 18.4 mph 24.2 mph 0.00 in Snow Light Snow
4:55 AM 21.9 °F 7.8 °F 19.0 °F 89% 29.71 in 9.0 mi North 17.3 mph 24.2 mph 0.01 in Snow Light Snow
5:36 AM 19.4 °F 8.6 °F 19.4 °F 100% 29.67 in 9.0 mi North 9.2 mph - 0.01 in Snow Light Snow
5:55 AM 19.9 °F 7.9 °F 18.0 °F 92% 29.74 in 9.0 mi North 11.5 mph - 0.02 in Snow Light Snow
6:55 AM 19.9 °F 7.9 °F 18.0 °F 92% 29.73 in 9.0 mi North 11.5 mph - 0.01 in Snow Light Snow
7:38 AM 19.4 °F 7.9 °F 17.6 °F 93% 29.68 in 9.0 mi North 10.4 mph - 0.01 in Snow Light Snow
7:55 AM 19.9 °F 7.9 °F 18.0 °F 92% 29.75 in 9.0 mi North 11.5 mph - 0.02 in Snow Light Snow
8:15 AM 19.4 °F 6.0 °F 17.6 °F 93% 29.68 in 9.0 mi North 13.8 mph - 0.00 in Snow Light Snow
8:36 AM 19.4 °F 7.2 °F 17.6 °F 93% 29.68 in 9.0 mi North 11.5 mph - 0.01 in Snow Light Snow
8:44 AM 19.4 °F 5.0 °F 17.6 °F 93% 29.69 in 9.0 mi North 16.1 mph - 0.01 in Snow Light Snow
8:55 AM 19.9 °F 6.7 °F 18.0 °F 92% 29.76 in 9.0 mi North 13.8 mph - 0.02 in Snow Light Snow
9:44 AM 19.4 °F 6.0 °F 17.6 °F 93% 29.69 in 9.0 mi North 13.8 mph 19.6 mph 0.03 in Snow Light Snow
9:55 AM 19.9 °F 6.7 °F 16.0 °F 85% 29.76 in 9.0 mi North 13.8 mph - 0.04 in Snow Light Snow
10:07 AM 19.4 °F 7.9 °F 15.8 °F 86% 29.68 in 9.0 mi North 10.4 mph - 0.00 in   Overcast
10:55 AM 21.0 °F 7.6 °F 12.0 °F 68% 29.75 in 10.0 mi North 15.0 mph - 0.00 in   Overcast
11:55 AM 21.9 °F 9.8 °F 15.1 °F 75% 29.73 in 10.0 mi North 12.7 mph - N/A   Partly Cloudy
12:55 PM 23.0 °F 10.6 °F 17.1 °F 78% 29.70 in 10.0 mi NNW 13.8 mph - N/A   Partly Cloudy
1:55 PM 24.1 °F 9.0 °F 14.0 °F 65% 29.69 in 10.0 mi NNW 21.9 mph 28.8 mph N/A   Clear
2:55 PM 24.1 °F 10.6 °F 14.0 °F 65% 29.73 in 10.0 mi North 17.3 mph - N/A   Clear
3:55 PM 23.0 °F 12.4 °F 14.0 °F 68% 29.76 in 10.0 mi NNW 10.4 mph - N/A   Clear
4:55 PM 19.9 °F 6.7 °F 12.0 °F 71% 29.82 in 10.0 mi North 13.8 mph - N/A   Clear
5:55 PM 15.1 °F 2.5 °F 8.1 °F 74% 29.87 in 10.0 mi North 10.4 mph - N/A   Clear
6:55 PM 12.0 °F -2.0 °F 7.0 °F 80% 29.93 in 10.0 mi NNW 11.5 mph - N/A   Clear
7:55 PM 10.9 °F -4.1 °F 7.0 °F 84% 29.95 in 10.0 mi NNW 12.7 mph - N/A   Clear
8:55 PM 10.9 °F -4.7 °F 7.0 °F 84% 29.98 in 10.0 mi NNW 13.8 mph - N/A   Clear
9:55 PM 14.0 °F -0.2 °F 9.0 °F 80% 30.00 in 10.0 mi NNW 12.7 mph - N/A   Scattered Clouds
10:55 PM 17.1 °F 0.6 °F 12.0 °F 81% 29.99 in 9.0 mi NNW 19.6 mph - 0.00 in Snow Light Snow
11:07 PM 17.6 °F 0.9 °F 14.0 °F 86% 29.86 in 9.0 mi NNW 20.7 mph - 0.00 in Snow Light Snow
11:55 PM 18.0 °F 0.9 °F 15.1 °F 88% 29.99 in 10.0 mi NNW 21.9 mph 29.9 mph 0.00 in   Overcast